This is the latest recevied weather packets stored in our database for station/object KO4APQ. If no packets are shown the sender has not sent any weather packets the latest 10 day(s).
| Time | Temp. | Humidity | Pressure | Rain* | Wind** | Luminosity | Snow |
|---|---|---|---|---|---|---|---|
| 1777608915 | 12.78° C | 85% | 1013.3 hPa | 0 mm | - | 0 W/m² | - |
| 1777608611 | 12.78° C | 84% | 1013.4 hPa | 0 mm | - | 0 W/m² | - |
| 1777608309 | 12.78° C | 82% | 1013.5 hPa | 0 mm | - | 0 W/m² | - |
| 1777608007 | 13.33° C | 81% | 1013.5 hPa | 0 mm | - | 0 W/m² | - |
| 1777607702 | 13.33° C | 81% | 1013.4 hPa | 0 mm | - | 0 W/m² | - |
| 1777607399 | 13.33° C | 80% | 1013.6 hPa | 0 mm | - | 0 W/m² | - |
| 1777607095 | 13.89° C | 77% | 1013.5 hPa | 0 mm | - | 0 W/m² | - |
| 1777606791 | 13.89° C | 79% | 1013.6 hPa | 0 mm | - | 0 W/m² | - |
| 1777606486 | 13.89° C | 75% | 1013.6 hPa | 0 mm | - | 0 W/m² | - |
| 1777606182 | 13.89° C | 74% | 1013.7 hPa | 0 mm | - | 0 W/m² | - |
| 1777605879 | 13.89° C | 78% | 1013.5 hPa | 0 mm | - | 0 W/m² | - |
| 1777605579 | 13.89° C | 76% | 1013.4 hPa | 0 mm | - | 0 W/m² | - |
| 1777605273 | 13.89° C | 79% | 1013.4 hPa | 0 mm | - | 0 W/m² | - |
| 1777604970 | 14.44° C | 80% | 1013.1 hPa | 0 mm | - | 0 W/m² | - |
| 1777604666 | 13.89° C | 77% | 1013.1 hPa | 0 mm | - | 0 W/m² | - |
| 1777604363 | 14.44° C | 78% | 1013.3 hPa | 0 mm | - | 0 W/m² | - |
| 1777604062 | 14.44° C | 76% | 1013.2 hPa | 0 mm | - | 0 W/m² | - |
| 1777603760 | 15° C | 76% | 1012.9 hPa | 0 mm | - | 0 W/m² | - |
| 1777603456 | 15° C | 74% | 1013 hPa | 0 mm | - | 0 W/m² | - |
| 1777603153 | 15° C | 68% | 1013 hPa | 0 mm | - | 0 W/m² | - |
| 1777602849 | 15° C | 73% | 1013 hPa | 0 mm | - | 0 W/m² | - |
| 1777602543 | 15° C | 70% | 1013.1 hPa | 0 mm | - | 0 W/m² | - |
| 1777602239 | 15° C | 70% | 1012.9 hPa | 0 mm | - | 0 W/m² | - |
| 1777601935 | 15.56° C | 69% | 1013 hPa | 0 mm | - | 0 W/m² | - |
| 1777601634 | 15.56° C | 69% | 1012.8 hPa | 0 mm | - | 0 W/m² | - |
* Rain latest hour (hover to see other rain measurements)
** Current wind speed in m/s (hover to see current wind gust speed)